CW1234 Weather Reports


Display with metric or nautical units.
time (UTC)temp
F
wind
direction
speed
MPH
gust
MPH
rain 1hr
in
rain 24hr
in
rain mn
in
humidity
%
barometer
mb
20260507145900 51 269 3.0 7.0 0.00 0.21 0.00 37 1022.8
20260507135856 46 327 1.0 2.0 0.00 0.21 0.00 42 1022.2
20260507125852 39 57 0.0 1.0 0.00 0.21 0.00 51 1020.6
20260507115844 35 73 0.0 1.0 0.00 0.21 0.00 54 1020.8
20260507105836 34 49 0.0 0.0 0.00 0.21 0.00 57 1020.6
20260507095858 33 49 0.0 1.0 0.00 0.21 0.00 60 1020.3
20260507085850 32 52 0.0 2.0 0.00 0.21 0.00 72 1020.4
20260507075843 29 82 0.0 1.0 0.00 0.21 0.00 93 1019.9
20260507065843 27 119 0.0 1.0 0.00 0.21 0.00 93 1018.7
20260507055842 29 119 0.0 2.0 0.00 0.21 0.00 93 1019.2
20260507045834 30 116 0.0 3.0 0.00 0.21 0.21 92 1018.4
20260507035856 31 75 0.0 2.0 0.00 0.21 0.21 91 1018.6
20260507025848 32 286 0.0 1.0 0.00 0.21 0.21 84 1018.6
20260507015841 34 293 0.0 3.0 0.00 0.21 0.21 77 1018.8
20260507005902 39 50 1.0 4.0 0.01 0.22 0.21 68 1019.7
20260506235855 39 104 1.0 3.0 0.01 0.22 0.20 67 1019.1
20260506215847 39 315 2.0 4.0 0.09 0.21 0.16 64 1019.3
20260506205842 37 18 1.0 4.0 0.07 0.13 0.07 70 1019.7
20260506185902 34 48 2.0 5.0 0.00 0.09 0.00 78 1018.8
20260506165859 30 311 2.0 5.0 0.00 0.14 0.00 87 1017.7
20260506155856 31 8 0.0 1.0 0.00 0.18 0.00 86 1016.8